Lid_Strength_Index
6 6 6 9 11 8 12 12 14 14 12 10 9 8 7 7 6 6 5 4 4 3 2 2 2 2 1 1 1 0 0 -0
7 6 6 8 7 11 11 17 17 16 15 13 12 10 8 8 7 6 5 4 4 3 3 2 2 1 1 1 1 1 0 0
7 9 9 8 9 9 9 11 14 16 15 10 10 9 9 7 6 6 5 5 4 3 2 2 2 1 1 1 1 1 0 -0
10 7 8 8 9 9 11 13 12 13 13 8 8 8 7 7 6 5 4 4 4 3 3 2 2 2 2 1 1 1 0 0
11 9 8 9 9 9 9 10 13 13 12 9 8 8 7 7 6 6 5 4 4 4 3 3 3 2 2 1 1 1 0 0
11 11 9 10 10 10 9 11 12 11 12 11 10 9 8 7 6 6 5 5 4 4 3 3 3 2 2 2 1 1 1 1
9 9 9 10 10 10 10 9 11 10 11 10 9 9 8 7 6 6 6 5 5 4 4 3 3 3 2 2 1 0 1 1
11 9 9 10 10 9 10 10 10 10 11 8 7 7 7 7 7 7 6 5 5 4 4 4 3 3 3 3 2 1 2 1
12 10 10 11 9 9 10 10 10 12 10 8 8 8 8 7 6 6 5 5 5 4 4 3 3 2 3 4 4 5 5 3
11 11 15 9 7 8 9 10 9 9 8 8 8 7 6 5 5 5 5 5 5 6 6 6 6 5 5 6 6 6 6 5
12 12 11 9 8 8 9 9 7 9 8 7 7 6 7 4 4 5 5 5 6 7 7 7 7 6 6 6 7 6 6 6
11 13 14 10 7 5 7 11 7 7 8 8 7 11 9 6 7 7 5 6 6 7 7 7 8 7 7 7 7 8 7 7
11 12 10 7 6 5 12 10 7 7 7 7 8 6 5 7 7 6 5 6 6 7 8 8 8 8 9 9 9 9 7 7
11 12 13 6 7 9 8 6 6 6 6 6 5 5 5 6 7 6 6 6 6 8 9 8 8 8 8 9 8 8 7 7
9 9 7 6 6 5 5 6 6 6 5 5 5 5 5 5 5 6 6 6 6 7 7 8 7 7 8 7 7 7 7 7
9 8 7 6 5 4 4 5 5 4 4 4 5 5 6 6 5 5 5 5 5 6 7 7 6 6 6 6 6 6 7 7
9 7 6 5 5 4 5 4 4 4 4 4 4 5 6 7 5 6 5 5 5 6 6 6 6 6 6 6 5 6 6 6
9 7 6 6 4 4 4 5 4 4 4 3 3 5 5 6 6 6 6 6 5 5 6 6 6 6 6 6 6 7 7 8
6 4 4 4 4 4 4 4 3 3 3 4 3 3 3 3 4 6 5 6 6 6 6 7 6 6 5 5 5 6 7 7